RYR7W EGHH-LEPA

Flight info

Callsign RYR7W
Flight time 1h 57m
Altitude 35000
Route SAM Y8 GWC UN859 SOPIL DCT BALAN DCT EVPOK DCT NARAK DCT GAI DCT LOMRA DCT ROCAN DCT IBRAP N13 LORES
Aircraft B738/M-SDE2E3FGHIRWXY/LB1

Departure

Time 2026-05-04 15:57
Airport Bournemouth Airport (EGHH)

Arrival

Time 2026-05-04 17:55
Airport Palma de Mallorca Airport (LEPA)
Time Latitude Longitude Altitude Speed Heading
2026-05-04 15:48 50.78610 -1.84056 44 ft 0 kts 172°
2026-05-04 15:54 50.78593 -1.84066 44 ft 9 kts 210°
2026-05-04 15:54 50.78524 -1.84083 44 ft 16 kts 174°
2026-05-04 15:54 50.78459 -1.83946 40 ft 17 kts 108°
2026-05-04 15:55 50.78430 -1.83774 41 ft 16 kts 103°
2026-05-04 15:55 50.78406 -1.83612 43 ft 15 kts 103°
2026-05-04 15:55 50.78377 -1.83463 43 ft 14 kts 114°
2026-05-04 15:55 50.78335 -1.83329 42 ft 13 kts 119°
2026-05-04 15:56 50.78294 -1.83205 42 ft 12 kts 118°
2026-05-04 15:56 50.78249 -1.83092 42 ft 12 kts 139°
2026-05-04 15:56 50.78200 -1.83135 43 ft 9 kts 249°
2026-05-04 15:56 50.78177 -1.83237 43 ft 23 kts 253°
2026-05-04 15:57 50.78067 -1.83893 43 ft 99 kts 255°
2026-05-04 15:57 50.77830 -1.85276 56 ft 159 kts 253°
2026-05-04 15:57 50.77544 -1.87012 746 ft 164 kts 255°
2026-05-04 15:57 50.77305 -1.88763 1674 ft 162 kts 258°
2026-05-04 15:58 50.77032 -1.90541 2352 ft 180 kts 243°
2026-05-04 15:58 50.76029 -1.91878 2621 ft 211 kts 196°
2026-05-04 15:58 50.74510 -1.91736 2889 ft 234 kts 154°
2026-05-04 15:58 50.73283 -1.89932 3188 ft 255 kts 115°
2026-05-04 15:59 50.72977 -1.87181 3964 ft 258 kts 88°
2026-05-04 15:59 50.72713 -1.84384 4932 ft 262 kts 111°
2026-05-04 15:59 50.71915 -1.81782 5858 ft 266 kts 117°
2026-05-04 15:59 50.71041 -1.79205 6794 ft 268 kts 122°
2026-05-04 16:00 50.69832 -1.76948 7638 ft 272 kts 135°
2026-05-04 16:00 50.68475 -1.74881 8624 ft 270 kts 137°
2026-05-04 16:00 50.67105 -1.72824 9543 ft 273 kts 137°
2026-05-04 16:00 50.65717 -1.70732 10291 ft 281 kts 137°
2026-05-04 16:01 50.64251 -1.68508 10555 ft 306 kts 137°
2026-05-04 16:01 50.62659 -1.66076 10815 ft 329 kts 136°
2026-05-04 16:01 50.61004 -1.63530 11488 ft 336 kts 136°
2026-05-04 16:01 50.59326 -1.60935 12240 ft 341 kts 136°
2026-05-04 16:02 50.57621 -1.58293 13007 ft 346 kts 136°
2026-05-04 16:02 50.55898 -1.55620 13808 ft 350 kts 136°
2026-05-04 16:02 50.52398 -1.50188 15211 ft 357 kts 136°
2026-05-04 16:03 50.50625 -1.47438 15930 ft 360 kts 136°
2026-05-04 16:03 50.48837 -1.44666 16634 ft 363 kts 136°
2026-05-04 16:03 50.47031 -1.41871 17330 ft 366 kts 136°
2026-05-04 16:03 50.45207 -1.39052 18023 ft 370 kts 136°
2026-05-04 16:04 50.43366 -1.36208 18626 ft 374 kts 136°
2026-05-04 16:04 50.39625 -1.30440 19806 ft 380 kts 137°
2026-05-04 16:04 50.37736 -1.27531 20423 ft 382 kts 137°
2026-05-04 16:05 50.35824 -1.24593 20781 ft 392 kts 137°
2026-05-04 16:05 50.33838 -1.21547 20921 ft 406 kts 137°
2026-05-04 16:05 50.29757 -1.15293 21860 ft 413 kts 137°
2026-05-04 16:06 50.27698 -1.12142 22419 ft 415 kts 138°
2026-05-04 16:06 50.22147 -1.03667 23677 ft 423 kts 138°
2026-05-04 16:07 50.19316 -0.99359 24231 ft 426 kts 138°
2026-05-04 16:07 50.12972 -0.89726 25558 ft 428 kts 138°
2026-05-04 16:08 50.10822 -0.86473 25774 ft 434 kts 138°
2026-05-04 16:08 50.04296 -0.76618 27043 ft 435 kts 138°
2026-05-04 16:09 49.99976 -0.70112 28136 ft 430 kts 139°
2026-05-04 16:09 49.95680 -0.63664 29099 ft 429 kts 139°
2026-05-04 16:10 49.91401 -0.57258 30075 ft 426 kts 139°
2026-05-04 16:11 49.85018 -0.47733 31275 ft 423 kts 139°
2026-05-04 16:11 49.82900 -0.44580 31676 ft 422 kts 139°
2026-05-04 16:12 49.76603 -0.35231 32822 ft 419 kts 139°
2026-05-04 16:12 49.70321 -0.25940 33986 ft 414 kts 139°
2026-05-04 16:13 49.66149 -0.19790 34446 ft 416 kts 139°
2026-05-04 16:13 49.61942 -0.13604 34884 ft 418 kts 139°
2026-05-04 16:14 49.58408 -0.08418 35252 ft 420 kts 139°
2026-05-04 16:14 49.54164 -0.02204 35671 ft 421 kts 139°
2026-05-04 16:15 49.47775 0.07119 36168 ft 428 kts 139°
2026-05-04 16:16 49.43409 0.13471 36424 ft 435 kts 139°
2026-05-04 16:16 49.36774 0.23100 37139 ft 436 kts 139°
2026-05-04 16:17 49.32254 0.29218 37457 ft 435 kts 148°
2026-05-04 16:18 49.23954 0.34471 37935 ft 433 kts 167°
2026-05-04 16:18 49.21030 0.35651 37962 ft 436 kts 167°
2026-05-04 16:19 49.06142 0.41758 37974 ft 451 kts 166°
2026-05-04 16:20 48.90905 0.48109 37976 ft 457 kts 166°
2026-05-04 16:22 48.75580 0.54414 37960 ft 455 kts 167°
2026-05-04 16:23 48.57226 0.61545 37959 ft 454 kts 167°
2026-05-04 16:25 48.39000 0.68857 37955 ft 450 kts 167°
2026-05-04 16:26 48.17973 0.77299 38605 ft 442 kts 167°
2026-05-04 16:27 48.12033 0.79628 38855 ft 441 kts 167°
2026-05-04 16:28 48.03084 0.83134 38944 ft 446 kts 167°
2026-05-04 16:29 47.81874 0.91407 38927 ft 453 kts 168°
2026-05-04 16:31 47.66593 0.97311 38929 ft 454 kts 168°
2026-05-04 16:32 47.48319 1.04328 38924 ft 452 kts 168°
2026-05-04 16:33 47.36006 1.06360 38915 ft 445 kts 184°
2026-05-04 16:34 47.26740 1.06043 38921 ft 444 kts 183°
2026-05-04 16:35 47.08265 1.05626 38917 ft 441 kts 183°
2026-05-04 16:36 46.99056 1.05383 38910 ft 441 kts 184°
2026-05-04 16:37 46.89868 1.04960 38914 ft 440 kts 184°
2026-05-04 16:38 46.77625 1.04417 38916 ft 440 kts 184°
2026-05-04 16:39 46.62302 1.03759 38910 ft 441 kts 184°
2026-05-04 16:40 46.50030 1.03733 38903 ft 444 kts 172°
2026-05-04 16:41 46.34970 1.08848 38910 ft 446 kts 169°
2026-05-04 16:43 46.19842 1.13893 38904 ft 446 kts 170°
2026-05-04 16:43 46.10764 1.16897 38908 ft 446 kts 170°
2026-05-04 16:45 45.92637 1.22869 38912 ft 445 kts 171°
2026-05-04 16:46 45.77556 1.27806 38911 ft 444 kts 171°
2026-05-04 16:47 45.65506 1.31732 38913 ft 444 kts 171°
2026-05-04 16:48 45.53435 1.35648 38897 ft 445 kts 171°
2026-05-04 16:49 45.41377 1.39541 38910 ft 444 kts 171°
2026-05-04 16:50 45.29333 1.43415 38924 ft 443 kts 171°
2026-05-04 16:51 45.20305 1.46308 38932 ft 443 kts 171°
2026-05-04 16:52 45.08311 1.50138 38940 ft 443 kts 171°
2026-05-04 16:53 44.99301 1.53004 38895 ft 442 kts 171°
2026-05-04 16:54 44.87308 1.56804 38906 ft 441 kts 171°
2026-05-04 16:55 44.69340 1.62467 38906 ft 441 kts 171°
2026-05-04 16:56 44.54381 1.67155 38912 ft 440 kts 172°
2026-05-04 16:57 44.45403 1.69957 38918 ft 441 kts 172°
2026-05-04 16:58 44.33418 1.73684 38917 ft 441 kts 172°
2026-05-04 17:00 44.15360 1.78035 38920 ft 439 kts 176°
2026-05-04 17:01 44.01295 1.81108 38902 ft 439 kts 175°
2026-05-04 17:02 43.89189 1.83164 38929 ft 437 kts 181°
2026-05-04 17:03 43.80070 1.83921 38902 ft 438 kts 181°
2026-05-04 17:03 43.70942 1.84775 38918 ft 439 kts 180°
2026-05-04 17:04 43.58752 1.85958 38909 ft 439 kts 181°
2026-05-04 17:05 43.46548 1.87134 38910 ft 440 kts 181°
2026-05-04 17:06 43.37388 1.88014 38917 ft 439 kts 181°
2026-05-04 17:07 43.29274 1.88792 38918 ft 439 kts 181°
2026-05-04 17:07 43.22157 1.89477 38918 ft 439 kts 181°
2026-05-04 17:08 43.13065 1.90349 38922 ft 438 kts 181°
2026-05-04 17:09 43.06939 1.90935 38898 ft 438 kts 181°
2026-05-04 17:09 43.00867 1.91516 38911 ft 437 kts 181°
2026-05-04 17:10 42.85842 1.92946 38919 ft 433 kts 181°
2026-05-04 17:11 42.79835 1.93514 38920 ft 433 kts 181°
2026-05-04 17:12 42.70821 1.94368 38935 ft 432 kts 181°
2026-05-04 17:13 42.56055 1.98732 38914 ft 438 kts 171°
2026-05-04 17:14 42.44200 2.03028 38927 ft 445 kts 171°
2026-05-04 17:15 42.35190 2.06260 38919 ft 447 kts 171°
2026-05-04 17:16 42.23161 2.10529 38924 ft 447 kts 171°
2026-05-04 17:17 42.11243 2.14748 38928 ft 432 kts 172°
2026-05-04 17:18 41.99690 2.18811 38928 ft 428 kts 172°
2026-05-04 17:19 41.88175 2.22848 38489 ft 435 kts 172°
2026-05-04 17:19 41.82355 2.24890 37539 ft 427 kts 172°
2026-05-04 17:20 41.76651 2.26885 36736 ft 422 kts 172°
2026-05-04 17:20 41.70976 2.28862 36067 ft 426 kts 172°
2026-05-04 17:20 41.68088 2.29864 35673 ft 430 kts 172°
2026-05-04 17:21 41.62339 2.31870 34843 ft 424 kts 172°
2026-05-04 17:21 41.56652 2.33854 34034 ft 420 kts 172°
2026-05-04 17:22 41.53828 2.34835 33562 ft 419 kts 172°
2026-05-04 17:22 41.50990 2.35817 33143 ft 424 kts 172°
2026-05-04 17:23 41.42290 2.38822 31846 ft 433 kts 172°
2026-05-04 17:23 41.39374 2.39832 31427 ft 433 kts 172°
2026-05-04 17:23 41.33537 2.41850 30584 ft 434 kts 171°
2026-05-04 17:24 41.30610 2.42861 30149 ft 435 kts 172°
2026-05-04 17:24 41.21807 2.45891 28763 ft 437 kts 172°
2026-05-04 17:25 41.18859 2.46903 28304 ft 439 kts 171°
2026-05-04 17:25 41.12920 2.48939 27373 ft 443 kts 171°
2026-05-04 17:26 41.06916 2.50994 26435 ft 448 kts 171°
2026-05-04 17:26 40.97797 2.54108 25037 ft 454 kts 171°
2026-05-04 17:27 40.91771 2.56172 24112 ft 441 kts 171°
2026-05-04 17:27 40.85849 2.58187 23129 ft 439 kts 172°
2026-05-04 17:28 40.79956 2.60186 22152 ft 435 kts 171°
2026-05-04 17:29 40.71232 2.63141 20806 ft 428 kts 171°
2026-05-04 17:29 40.62629 2.66047 19476 ft 423 kts 171°
2026-05-04 17:30 40.54165 2.68899 18132 ft 419 kts 170°
2026-05-04 17:31 40.48690 2.71015 17008 ft 401 kts 159°
2026-05-04 17:31 40.41774 2.76170 15598 ft 358 kts 155°
2026-05-04 17:32 40.37598 2.79267 14881 ft 333 kts 156°
2026-05-04 17:33 40.31802 2.83463 13916 ft 304 kts 156°
2026-05-04 17:33 40.29966 2.84783 13598 ft 299 kts 156°
2026-05-04 17:34 40.24560 2.88668 12636 ft 293 kts 156°
2026-05-04 17:34 40.22764 2.89957 12334 ft 296 kts 156°
2026-05-04 17:35 40.17323 2.93865 11380 ft 296 kts 156°
2026-05-04 17:35 40.13747 2.96435 10763 ft 291 kts 156°
2026-05-04 17:35 40.11977 2.97706 10460 ft 289 kts 156°
2026-05-04 17:36 40.10218 2.98967 10150 ft 288 kts 157°
2026-05-04 17:36 40.08484 3.00212 10000 ft 280 kts 157°
2026-05-04 17:36 40.06807 3.01416 9721 ft 273 kts 157°
2026-05-04 17:36 40.05145 3.02605 9239 ft 272 kts 157°
2026-05-04 17:37 40.03487 3.03789 8779 ft 271 kts 157°
2026-05-04 17:37 40.01842 3.04964 8373 ft 268 kts 156°
2026-05-04 17:37 40.00214 3.06128 7984 ft 266 kts 157°
2026-05-04 17:37 39.98575 3.07297 7954 ft 270 kts 157°
2026-05-04 17:38 39.96933 3.08469 7928 ft 268 kts 157°
2026-05-04 17:38 39.95298 3.09636 7924 ft 267 kts 157°
2026-05-04 17:38 39.93668 3.10797 7924 ft 267 kts 157°
2026-05-04 17:38 39.92037 3.11960 7919 ft 267 kts 157°
2026-05-04 17:39 39.88645 3.13251 7509 ft 247 kts 191°
2026-05-04 17:39 39.87011 3.12671 7036 ft 243 kts 205°
2026-05-04 17:39 39.85455 3.11807 6590 ft 243 kts 206°
2026-05-04 17:40 39.83916 3.10912 6149 ft 242 kts 206°
2026-05-04 17:40 39.82386 3.10004 5715 ft 241 kts 207°
2026-05-04 17:40 39.80871 3.09092 5309 ft 239 kts 207°
2026-05-04 17:40 39.79360 3.08185 4890 ft 238 kts 207°
2026-05-04 17:41 39.77860 3.07286 4471 ft 237 kts 207°
2026-05-04 17:41 39.76370 3.06395 4064 ft 235 kts 207°
2026-05-04 17:41 39.74923 3.05550 3944 ft 220 kts 207°
2026-05-04 17:41 39.73563 3.04772 3855 ft 207 kts 206°
2026-05-04 17:42 39.72297 3.04041 3735 ft 192 kts 207°
2026-05-04 17:42 39.71112 3.03358 3556 ft 178 kts 207°
2026-05-04 17:42 39.70009 3.02736 3334 ft 171 kts 207°
2026-05-04 17:42 39.68926 3.02128 3098 ft 167 kts 207°
2026-05-04 17:43 39.67844 3.01507 3020 ft 171 kts 207°
2026-05-04 17:43 39.66761 3.00873 2977 ft 169 kts 207°
2026-05-04 17:43 39.65686 3.00245 2974 ft 170 kts 207°
2026-05-04 17:43 39.64605 2.99629 2981 ft 169 kts 207°
2026-05-04 17:44 39.63531 2.99019 2963 ft 168 kts 207°
2026-05-04 17:44 39.62561 2.98197 2968 ft 167 kts 231°
2026-05-04 17:44 39.61984 2.96933 2973 ft 159 kts 233°
2026-05-04 17:44 39.61133 2.96156 2978 ft 147 kts 199°
2026-05-04 17:45 39.60138 2.96150 2984 ft 145 kts 182°
2026-05-04 17:45 39.59134 2.96273 2980 ft 145 kts 182°
2026-05-04 17:45 39.58132 2.96387 2976 ft 145 kts 182°
2026-05-04 17:45 39.57126 2.96493 2976 ft 145 kts 184°
2026-05-04 17:46 39.56130 2.96433 2980 ft 146 kts 180°
2026-05-04 17:46 39.55176 2.96991 2987 ft 160 kts 143°
2026-05-04 17:46 39.54613 2.98280 2974 ft 173 kts 106°
2026-05-04 17:46 39.54700 2.99839 2977 ft 179 kts 70°
2026-05-04 17:47 39.55436 3.01117 2978 ft 179 kts 33°
2026-05-04 17:47 39.56556 3.01690 2986 ft 169 kts
2026-05-04 17:47 39.57742 3.01933 2993 ft 175 kts
2026-05-04 17:47 39.58938 3.02181 2986 ft 173 kts
2026-05-04 17:48 39.59725 3.02312 2964 ft 171 kts 356°
2026-05-04 17:48 39.60824 3.01976 2982 ft 159 kts 319°
2026-05-04 17:48 39.61505 3.00957 2977 ft 145 kts 286°
2026-05-04 17:48 39.61908 2.99756 2983 ft 147 kts 287°
2026-05-04 17:49 39.62326 2.98536 2993 ft 149 kts 287°
2026-05-04 17:49 39.62748 2.97296 2997 ft 151 kts 287°
2026-05-04 17:49 39.63172 2.96036 2990 ft 151 kts 287°
2026-05-04 17:49 39.63579 2.94804 2971 ft 145 kts 283°
2026-05-04 17:50 39.63539 2.93611 2967 ft 132 kts 235°
2026-05-04 17:50 39.63016 2.92593 2838 ft 139 kts 247°
2026-05-04 17:50 39.62656 2.91450 2673 ft 137 kts 242°
2026-05-04 17:50 39.62209 2.90362 2515 ft 137 kts 238°
2026-05-04 17:51 39.61725 2.89299 2352 ft 137 kts 238°
2026-05-04 17:51 39.61232 2.88243 2164 ft 136 kts 236°
2026-05-04 17:51 39.60741 2.87202 1987 ft 134 kts 237°
2026-05-04 17:51 39.60255 2.86171 1814 ft 134 kts 237°
2026-05-04 17:52 39.59768 2.85138 1643 ft 134 kts 236°
2026-05-04 17:52 39.59284 2.84111 1453 ft 134 kts 235°
2026-05-04 17:52 39.58813 2.83112 1309 ft 123 kts 236°
2026-05-04 17:52 39.58362 2.82156 1137 ft 127 kts 237°
2026-05-04 17:53 39.57902 2.81179 952 ft 124 kts 236°
2026-05-04 17:53 39.57448 2.80223 770 ft 129 kts 236°
2026-05-04 17:53 39.56967 2.79230 624 ft 131 kts 237°
2026-05-04 17:53 39.56483 2.78198 424 ft 135 kts 238°
2026-05-04 17:54 39.55991 2.77154 238 ft 136 kts 238°
2026-05-04 17:54 39.55518 2.76129 93 ft 129 kts 238°
2026-05-04 17:54 39.55074 2.75183 38 ft 112 kts 237°
2026-05-04 17:54 39.54757 2.74512 36 ft 57 kts 238°
2026-05-04 17:55 39.54588 2.74146 37 ft 38 kts 243°
2026-05-04 17:55 39.54550 2.73890 37 ft 22 kts 269°
2026-05-04 17:55 39.54549 2.73740 37 ft 14 kts 269°
2026-05-04 17:55 39.54554 2.73636 37 ft 7 kts 308°